Wind_Speed
51 55 57 56 57 61 63 63 66 62 57 48 30 14 3 22 44 63 88 94 96 93 96 86 88 77 69 41 73 74 80 83 75 74 72 69 67 64 62 59 58 57 56 55
47 49 54 53 55 57 60 64 68 65 59 47 28 13 5 28 46 68 84 92 95 93 90 88 84 83 72 62 43 57 67 75 75 75 72 68 67 65 63 61 59 59 60 60
44 42 48 50 50 57 58 61 63 63 59 53 32 15 6 24 47 71 86 89 90 89 84 88 80 78 73 72 60 55 59 65 70 76 78 72 63 64 65 66 67 65 61 62
39 41 42 46 45 51 52 56 60 61 60 61 36 16 0 20 48 73 84 84 85 85 78 82 79 85 73 72 55 51 48 52 56 58 62 66 70 69 67 67 67 66 65 65
48 36 40 41 42 44 46 51 56 58 59 60 42 21 2 16 43 69 83 86 86 82 76 79 82 79 88 73 64 54 52 59 51 57 65 62 66 65 65 64 64 67 69 70
55 43 35 38 38 39 42 47 51 54 54 54 49 23 2 16 39 62 77 79 81 77 75 77 79 67 73 83 74 63 61 58 53 59 59 63 62 65 62 59 58 60 58 62
63 46 37 39 38 38 41 45 49 50 46 50 49 29 5 17 42 61 67 66 69 73 71 69 66 72 76 76 80 78 65 65 59 57 61 56 56 54 56 62 69 65 61 63
69 52 44 33 31 29 37 41 43 45 37 39 42 36 8 17 42 55 58 60 66 66 63 60 55 60 61 64 69 69 75 78 69 60 62 63 63 61 62 59 61 63 65 62
71 59 48 39 32 28 31 37 40 40 32 28 33 30 12 17 38 47 51 56 59 64 69 65 64 59 61 64 70 73 70 69 71 69 66 64 63 65 64 64 67 68 68 74
70 63 53 44 36 29 29 33 33 35 29 25 20 23 15 15 37 41 47 54 56 58 67 72 69 69 62 65 69 79 78 71 70 72 74 74 69 67 67 74 76 74 73 74
69 67 61 51 40 32 31 29 28 27 27 24 22 14 16 6 32 41 44 49 55 59 66 73 76 72 67 63 69 74 80 79 75 74 80 78 73 72 75 75 84 81 78 76
66 65 63 57 50 37 33 30 31 25 27 25 24 14 8 9 22 43 49 50 55 65 70 73 80 83 86 78 74 74 77 76 81 85 78 70 75 80 78 83 82 80 81 84
65 67 65 62 55 42 35 29 29 28 32 33 28 21 15 11 15 30 50 54 57 65 72 78 86 92 92 90 90 87 87 81 80 79 78 85 83 81 83 89 90 90 89 93
69 67 67 65 63 57 47 30 25 28 31 33 31 24 21 21 22 28 33 52 62 63 72 80 84 91 98 99 99 98 94 98 98 93 93 92 93 92 98 93 93 90 90 92
71 70 69 70 67 62 53 44 37 30 25 26 29 30 32 28 29 33 39 44 51 65 75 77 87 93 96 101 103 107 110 110 111 106 106 107 103 103 102 102 99 94 98 94
73 75 69 70 69 65 63 51 43 38 39 38 34 37 44 47 44 40 40 45 55 60 67 79 89 91 98 104 104 108 110 110 110 116 122 116 115 113 113 112 111 106 104 102
78 78 71 69 72 69 68 66 57 49 45 44 47 43 44 49 50 54 53 46 53 57 70 72 78 90 99 105 110 113 115 116 117 118 119 122 126 126 125 126 122 122 119 114
82 83 75 70 72 74 75 70 69 61 54 51 53 54 56 60 64 67 64 56 52 55 62 71 81 87 88 95 103 110 120 124 124 125 126 127 130 132 134 134 133 133 134 135
88 83 79 75 75 77 78 76 74 72 65 61 59 60 63 67 72 72 72 71 68 64 59 62 75 82 91 100 99 101 105 114 119 129 135 135 135 136 137 138 139 140 139 137
91 85 84 82 81 81 83 85 81 78 70 69 70 71 72 74 76 78 78 78 80 77 73 63 69 79 84 92 97 108 110 108 110 116 124 129 133 139 140 141 140 134 130 132
90 87 86 88 87 88 90 92 92 91 83 77 77 78 81 83 85 87 90 90 88 88 83 76 71 76 83 88 93 100 103 109 115 117 116 119 123 128 135 139 143 144 144 145
91 90 89 88 91 94 97 98 93 93 91 89 88 87 86 86 90 93 93 95 93 89 85 81 80 80 84 88 90 95 101 106 109 111 117 125 129 124 123 124 126 129 131 134
93 92 91 92 96 101 103 98 95 98 101 99 98 96 94 96 96 100 97 93 89 86 83 82 83 85 86 89 90 90 93 99 101 105 112 116 121 124 126 134 134 133 131 128
96 95 94 99 101 105 107 104 104 108 109 104 104 104 103 103 101 98 92 89 87 86 85 85 86 88 89 89 91 94 95 94 93 95 99 101 101 105 109 120 131 136 135 135
98 97 99 104 108 112 110 109 113 114 109 108 109 109 107 104 98 94 91 90 89 89 89 89 89 90 91 93 94 95 95 97 97 96 95 96 97 99 101 103 106 109 112 113
101 102 105 110 113 117 115 117 118 114 114 114 112 110 104 99 96 95 94 93 93 94 93 91 88 86 87 87 89 91 92 94 94 96 99 99 100 99 99 99 101 105 109 110
Wind_Direction
329 330 333 339 343 343 344 347 352 355 357 356 353 341 254 188 186 186 187 190 195 195 197 197 202 200 199 212 229 225 229 230 230 232 234 236 238 242 244 246 249 254 258 259
329 329 334 339 343 345 347 350 352 354 0 2 358 347 198 187 185 183 187 191 193 197 197 200 199 201 193 199 217 229 229 234 232 234 236 239 242 245 249 251 255 258 258 259
323 326 333 339 345 347 350 352 352 354 1 6 3 0 217 195 188 184 188 191 194 197 196 199 198 199 199 203 204 208 223 227 231 234 237 240 243 247 250 248 249 250 254 259
331 325 334 339 343 347 350 353 353 355 2 6 6 7 224 202 192 187 186 190 193 197 197 199 200 203 199 199 206 215 216 224 229 234 235 240 243 246 247 250 253 255 256 257
348 334 334 339 342 344 348 352 356 359 358 5 10 12 15 198 196 189 188 190 191 195 195 195 200 202 201 205 214 215 216 228 235 237 239 242 241 245 248 251 252 253 255 256
357 341 331 332 338 344 348 350 354 1 357 7 9 17 82 193 200 195 190 191 194 193 196 197 196 198 203 209 212 218 224 227 227 231 235 241 243 246 247 249 253 253 252 251
5 351 333 330 338 342 346 351 352 358 2 358 11 22 80 190 193 193 192 193 195 197 195 198 202 207 206 214 218 220 219 219 219 232 233 242 242 244 247 251 249 249 249 253
3 360 346 338 333 339 336 343 344 354 2 359 10 20 32 198 194 194 196 195 198 198 197 195 200 204 210 216 218 218 223 226 225 229 237 244 242 245 246 252 247 247 252 255
360 1 357 347 333 335 335 335 341 348 1 10 2 15 31 200 198 197 200 203 205 205 197 195 202 204 209 212 212 212 215 222 228 231 233 242 242 243 241 247 246 250 255 249
358 360 360 356 348 334 328 327 336 339 351 7 7 0 33 191 201 205 206 208 212 212 209 208 207 206 214 216 216 220 222 229 231 233 235 237 241 239 241 244 243 252 249 252
355 359 359 355 358 342 324 318 323 323 330 341 347 354 356 171 206 208 213 216 218 218 214 213 212 211 220 225 224 223 225 231 235 237 236 236 238 241 245 246 249 252 246 251
353 354 358 356 352 351 332 321 319 314 317 324 329 324 321 305 205 214 218 219 221 219 219 218 221 223 223 228 228 229 231 236 237 238 236 231 235 245 240 240 246 249 246 256
348 350 352 354 353 345 353 330 315 309 306 309 310 304 278 252 240 221 220 226 226 223 223 219 220 222 225 228 231 233 230 231 232 235 241 242 241 234 238 240 245 249 252 253
345 346 348 349 352 349 343 343 337 314 307 306 299 287 277 264 244 233 230 228 229 230 228 227 227 226 227 230 230 233 235 235 234 236 237 242 245 247 246 246 248 251 253 254
343 341 341 346 345 347 345 337 333 328 308 299 296 304 302 275 266 255 237 230 230 233 233 234 233 233 232 234 234 236 237 239 240 239 242 244 245 245 244 249 247 250 251 255
336 338 335 338 342 345 342 338 330 329 333 324 316 315 308 307 308 295 274 256 241 237 234 235 236 236 237 237 239 240 241 243 243 245 246 243 244 244 244 245 245 246 248 250
331 332 333 331 336 339 339 338 333 329 327 326 323 312 311 312 304 298 296 278 259 252 243 239 239 238 238 238 240 241 242 243 244 246 247 246 246 247 249 248 247 247 249 249
327 329 330 328 329 333 335 333 332 326 323 320 316 314 314 311 309 309 306 300 285 268 262 251 247 242 241 240 241 242 242 244 245 246 248 248 249 251 252 252 250 251 252 252
324 326 327 325 325 326 332 332 330 328 324 316 314 314 311 310 308 305 303 303 301 298 280 270 260 252 248 244 242 241 242 243 245 246 247 249 251 251 252 253 254 255 256 257
323 323 325 323 324 324 327 328 327 324 321 318 315 312 309 306 308 308 304 299 297 295 290 276 272 262 255 253 248 246 244 245 245 246 247 248 249 250 251 253 254 255 257 259
319 320 321 322 322 322 323 324 323 325 322 316 311 307 304 303 304 305 303 303 300 298 291 281 270 267 262 256 254 254 249 247 246 247 248 249 250 250 250 251 252 253 255 256
317 318 317 318 319 320 321 321 321 321 318 313 311 308 306 304 303 303 302 300 297 294 290 284 276 268 265 261 257 255 253 252 250 248 247 247 248 250 251 251 251 252 252 253
316 315 316 316 318 320 322 319 318 317 316 312 312 311 309 307 306 303 301 297 292 289 286 282 278 274 270 267 266 262 258 256 257 254 248 248 248 248 251 252 251 251 252 253
313 314 314 314 316 318 319 317 315 315 314 314 312 310 308 305 304 301 297 294 291 287 284 281 278 276 274 271 268 267 267 264 259 257 257 256 254 253 252 252 252 252 253 254
311 312 311 314 315 317 316 315 314 313 312 310 309 306 304 303 301 299 297 294 292 289 286 283 280 277 274 272 269 267 266 265 265 265 262 259 258 255 253 250 249 249 249 251
311 310 311 312 313 315 315 313 311 310 310 310 307 305 303 302 300 299 297 296 293 291 289 287 284 280 277 274 271 269 267 265 263 262 261 261 260 260 258 256 254 251 249 247
Height
10601 10591 10582 10573 10562 10548 10534 10520 10504 10489 10473 10458 10448 10444 10445 10451 10458 10469 10479 10498 10517 10540 10551 10577 10597 10616 10635 10653 10654 10658 10668 10679 10687 10694 10701 10707 10713 10719 10724 10728 10732 10734 10737 10741
10595 10585 10576 10567 10556 10545 10531 10515 10500 10487 10473 10460 10450 10447 10448 10449 10457 10468 10484 10498 10517 10537 10553 10575 10591 10606 10626 10635 10644 10649 10657 10667 10676 10684 10691 10699 10706 10712 10715 10718 10720 10722 10725 10728
10587 10580 10573 10564 10553 10540 10529 10518 10506 10493 10477 10462 10452 10449 10449 10453 10458 10469 10481 10499 10519 10537 10553 10567 10584 10600 10615 10624 10629 10639 10647 10656 10664 10673 10682 10688 10696 10699 10701 10702 10704 10709 10714 10717
10582 10574 10567 10560 10553 10542 10532 10521 10508 10495 10478 10466 10456 10450 10450 10456 10461 10470 10487 10507 10524 10539 10554 10566 10580 10592 10606 10615 10626 10632 10639 10647 10656 10665 10671 10676 10681 10684 10687 10691 10696 10701 10704 10706
10574 10569 10563 10558 10551 10543 10533 10524 10513 10500 10487 10475 10462 10455 10455 10460 10465 10476 10484 10500 10518 10534 10548 10562 10572 10586 10599 10610 10614 10623 10632 10638 10646 10652 10657 10663 10666 10670 10673 10678 10682 10685 10687 10690
10574 10565 10559 10554 10549 10543 10534 10526 10517 10507 10495 10484 10472 10465 10462 10468 10474 10483 10496 10508 10521 10536 10548 10560 10571 10578 10590 10598 10608 10616 10624 10630 10637 10642 10645 10650 10653 10657 10661 10664 10667 10670 10673 10676
10574 10564 10558 10551 10545 10540 10534 10527 10518 10512 10502 10493 10485 10475 10474 10479 10488 10499 10508 10521 10532 10542 10549 10558 10568 10578 10585 10595 10603 10609 10615 10622 10627 10629 10634 10637 10640 10645 10647 10650 10653 10656 10658 10660
10576 10566 10557 10552 10547 10541 10535 10529 10524 10518 10512 10504 10498 10490 10488 10493 10501 10512 10522 10532 10539 10549 10558 10566 10572 10579 10585 10590 10595 10600 10605 10609 10613 10617 10621 10624 10628 10631 10634 10635 10637 10640 10643 10645
10578 10568 10559 10552 10547 10541 10537 10531 10526 10522 10517 10512 10507 10505 10500 10503 10513 10523 10532 10539 10546 10553 10558 10561 10567 10572 10577 10581 10585 10589 10592 10596 10600 10603 10608 10611 10613 10616 10618 10620 10622 10623 10625 10626
10578 10569 10559 10552 10546 10540 10535 10531 10527 10522 10519 10516 10515 10512 10509 10510 10518 10527 10534 10539 10544 10551 10557 10563 10564 10566 10570 10573 10575 10577 10581 10583 10587 10591 10593 10596 10598 10599 10601 10601 10605 10607 10607 10609
10576 10568 10559 10552 10547 10539 10532 10528 10524 10522 10520 10518 10515 10516 10517 10515 10519 10525 10532 10537 10541 10545 10551 10555 10557 10558 10562 10564 10565 10568 10570 10571 10573 10575 10578 10581 10585 10587 10586 10587 10588 10588 10588 10591
10579 10570 10561 10552 10545 10537 10529 10526 10524 10521 10518 10517 10514 10513 10513 10516 10516 10520 10523 10527 10533 10537 10539 10542 10545 10548 10549 10550 10551 10553 10557 10559 10561 10563 10565 10565 10567 10570 10572 10572 10571 10572 10573 10573
10578 10571 10561 10552 10546 10541 10532 10525 10520 10518 10514 10513 10512 10511 10509 10509 10513 10514 10514 10517 10519 10520 10524 10526 10528 10530 10531 10531 10533 10535 10537 10539 10541 10544 10544 10546 10549 10551 10551 10552 10553 10554 10555 10555
10572 10564 10559 10553 10544 10537 10530 10524 10518 10513 10508 10505 10504 10504 10503 10502 10502 10503 10504 10505 10505 10507 10508 10508 10509 10509 10508 10507 10508 10510 10514 10516 10517 10519 10521 10523 10526 10527 10528 10530 10532 10532 10533 10534
10568 10559 10549 10547 10539 10532 10526 10519 10515 10510 10506 10501 10495 10492 10492 10494 10493 10491 10489 10488 10488 10489 10490 10490 10491 10490 10490 10489 10489 10489 10490 10491 10493 10494 10497 10500 10502 10503 10505 10505 10507 10508 10509 10511
10561 10555 10544 10536 10532 10525 10518 10514 10508 10501 10496 10493 10489 10483 10480 10477 10477 10476 10475 10476 10474 10469 10466 10466 10467 10467 10466 10467 10467 10467 10467 10466 10466 10466 10467 10469 10472 10475 10477 10478 10479 10482 10484 10486
10548 10544 10538 10526 10522 10515 10508 10502 10497 10490 10485 10481 10477 10473 10468 10464 10461 10458 10454 10453 10451 10449 10448 10444 10440 10438 10438 10438 10440 10439 10438 10438 10438 10438 10437 10438 10442 10444 10446 10448 10449 10449 10452 10456
10534 10528 10522 10516 10510 10506 10497 10490 10484 10479 10472 10466 10461 10456 10450 10445 10441 10436 10433 10429 10427 10424 10421 10419 10415 10411 10409 10409 10410 10409 10408 10408 10408 10407 10408 10408 10411 10412 10413 10415 10416 10417 10420 10423
10517 10511 10506 10499 10496 10490 10482 10474 10467 10462 10458 10449 10443 10438 10432 10426 10419 10412 10407 10404 10399 10394 10391 10388 10386 10383 10380 10378 10376 10375 10374 10375 10374 10375 10376 10376 10378 10380 10380 10382 10382 10384 10387 10391
10497 10491 10484 10478 10474 10470 10464 10457 10450 10446 10441 10431 10424 10417 10410 10404 10396 10385 10380 10375 10368 10362 10357 10353 10347 10347 10345 10344 10343 10343 10341 10340 10340 10340 10343 10342 10342 10345 10349 10350 10350 10351 10353 10358
10481 10474 10465 10455 10450 10447 10440 10434 10426 10419 10413 10408 10403 10396 10388 10380 10372 10364 10352 10341 10335 10329 10322 10318 10313 10308 10307 10306 10305 10304 10305 10306 10306 10306 10305 10305 10305 10307 10312 10317 10319 10321 10324 10326
10466 10456 10448 10441 10432 10427 10419 10410 10401 10394 10389 10381 10375 10366 10357 10348 10338 10328 10320 10311 10302 10294 10285 10280 10278 10272 10268 10266 10267 10263 10263 10263 10264 10266 10269 10270 10269 10269 10273 10276 10281 10283 10288 10294
10447 10438 10429 10420 10412 10401 10394 10384 10375 10367 10359 10350 10340 10332 10323 10313 10303 10293 10283 10274 10266 10260 10253 10246 10241 10234 10230 10227 10228 10227 10226 10225 10225 10226 10229 10231 10231 10232 10234 10241 10246 10247 10251 10259
10427 10416 10409 10398 10392 10381 10370 10360 10350 10340 10330 10319 10309 10297 10287 10277 10267 10255 10247 10238 10231 10224 10217 10211 10206 10200 10194 10190 10189 10187 10185 10187 10190 10191 10191 10192 10196 10197 10202 10206 10211 10214 10218 10222
10405 10396 10385 10377 10367 10357 10344 10334 10324 10313 10301 10290 10279 10267 10255 10242 10229 10219 10208 10200 10192 10185 10178 10172 10168 10162 10157 10153 10150 10148 10148 10148 10149 10151 10152 10154 10156 10159 10163 10168 10171 10176 10181 10188
10384 10373 10364 10354 10343 10332 10321 10308 10296 10283 10271 10257 10242 10229 10220 10209 10195 10184 10173 10164 10156 10146 10137 10130 10126 10121 10116 10112 10110 10109 10109 10111 10114 10116 10114 10115 10118 10121 10124 10127 10131 10136 10141 10150